SCP
0 0 0 0 0 0 0 0 0 0 0 0 0 0 0 0 0 0 0 0 0 0 0 0 -0 0 0 0 0 0 0 0
0 0 0 0 0 0 0 0 0 0 0 0 0 0 0 0 0 0 0 0 0 0 0 0 0 0 0 0 0 0 0 0
0 0 0 0 0 0 0 0 0 0 0 0 0 0 0 0 0 0 0 0 0 0 0 0 0 0 0 0 0 0 0 0
0 0 0 0 0 0 0 0 0 0 0 0 0 0 0 0 0 0 0 0 0 0 0 0 0 0 0 0 0 0 0 0
0 0 0 0 0 0 0 0 0 0 0 0 0 0 0 0 0 0 0 0 0 0 0 0 0 0 0 0 0 0 0 0
0 0 0 0 0 0 0 0 0 0 0 0 0 0 0 0 0 0 0 0 0 0 0 0 0 0 0 0 0 0 0 0
0 0 0 0 0 0 0 0 0 0 0 0 0 0 0 0 0 0 0 0 0 0 0 0 0 0 0 0 0 0 0 0
0 0 0 0 0 0 0 0 0 0 0 0 0 0 0 0 0 0 0 0 0 0 0 0 0 0 0 0 0 0 0 0
0 0 0 0 0 0 0 0 0 0 0 0 0 0 0 0 0 0 0 0 0 0 0 0 0 0 0 0 0 0 0 0
0 0 0 0 0 0 0 0 0 0 0 0 0 0 0 0 0 0 0 0 0 0 0 0 0 0 0 0 0 0 0 0
0 0 0 0 0 0 0 0 0 0 0 0 0 0 0 0 0 0 0 0 0 0 0 0 0 0 0 0 0 0 0 0
0 0 0 0 0 0 0 0 0 0 0 0 0 0 0 0 0 0 0 0 0 0 0 0 0 0 0 0 0 0 0 0
0 0 0 0 0 0 0 0 0 0 0 0 0 0 0 0 0 0 0 0 0 0 0 0 0 0 0 0 0 0 0 0
0 0 0 0 0 0 0 0 0 0 0 0 0 0 0 0 0 0 0 0 0 0 0 0 0 0 0 0 0 0 0 0
0 0 0 0 0 0 0 0 0 0 0 0 0 0 0 0 0 0 0 0 0 0 0 0 0 0 0 0 0 0 0 0
0 0 0 0 0 0 0 0 0 0 0 0 0 0 0 0 0 0 0 0 0 0 0 0 0 0 0 0 0 0 0 0
0 0 0 0 0 0 0 0 0 0 0 0 0 0 0 0 0 0 0 0 0 0 0 0 0 -0 0 0 0 0 0 0
0 0 0 0 0 0 0 0 0 0 0 0 0 0 0 0 0 0 0 0 0 0 0 -0 -0 -0 0 -0 0 0 0 0
0 0 0 0 0 0 0 0 0 0 0 0 0 0 0 0 0 0 0 0 0 0 -0 0 0 -0 -0 -0 0 0 0 0
0 0 0 0 0 0 0 0 0 0 0 0 0 0 0 0 0 0 0 0 0 0 0 0 0 0 0 -0 0 0 0 0
Wind_Speed_500mb
3 2 5 9 14 19 25 28 31 34 38 40 37 34 35 36 38 40 38 38 41 44 45 44 46 45 44 40 30 34 36 17
5 2 2 6 12 19 25 29 32 36 35 33 32 32 33 35 37 41 42 40 36 38 43 43 43 47 48 43 38 28 36 33
8 5 4 8 16 24 27 29 31 33 32 30 31 31 31 32 35 38 41 43 42 36 36 41 42 42 46 48 48 38 26 38
13 10 8 12 19 24 27 30 32 34 36 36 35 36 35 32 30 33 36 38 41 41 35 35 40 39 40 44 47 46 36 23
16 12 13 18 21 25 30 35 39 42 44 46 46 45 43 40 36 32 32 35 37 39 40 35 32 36 38 40 41 42 40 33
19 17 18 21 25 32 37 43 48 51 55 56 57 56 54 50 46 41 35 32 34 35 36 36 33 30 35 36 40 41 41 37
21 20 21 22 30 37 38 41 44 48 51 53 55 55 56 56 53 49 43 36 32 30 33 34 32 31 27 31 35 37 40 41
24 23 22 24 30 30 30 32 34 35 38 41 44 45 45 46 46 46 43 39 34 31 28 28 30 29 28 25 29 32 35 38
26 23 21 23 23 22 21 24 29 33 37 39 41 43 43 40 36 33 35 34 31 30 29 25 26 26 27 24 22 24 27 31
24 21 17 16 14 14 18 23 27 30 34 38 42 44 44 41 37 31 27 27 24 23 26 27 22 23 23 24 21 18 20 23
22 18 12 9 7 11 14 18 23 28 33 38 42 43 43 43 40 35 29 27 26 20 20 25 25 21 21 23 21 19 16 16
22 14 10 8 6 7 11 15 22 27 31 36 40 43 46 45 42 39 34 27 25 24 19 20 24 21 19 16 19 17 15 15
22 16 14 10 6 3 6 12 19 24 30 34 37 42 45 46 44 40 38 33 26 22 21 19 20 20 21 20 17 18 14 12
24 20 16 12 8 4 2 9 14 20 26 30 35 39 43 46 47 45 42 38 35 32 30 25 23 20 17 19 17 15 16 14
27 23 20 17 13 8 2 4 10 16 22 27 32 36 41 44 47 48 47 44 36 36 35 34 29 24 19 21 21 19 20 22
29 26 24 20 16 12 6 1 6 11 17 23 28 33 35 38 44 46 47 42 37 37 36 36 34 30 35 34 30 27 26 28
33 31 28 24 20 16 10 6 4 8 13 19 24 28 33 33 33 37 41 42 41 41 40 39 34 36 34 33 33 32 30 26
33 33 30 27 24 19 14 10 7 8 12 16 21 25 29 33 36 34 32 37 43 46 47 46 47 39 35 32 31 33 37 30
37 35 31 29 26 22 19 14 12 13 14 16 19 23 27 30 33 36 40 41 42 44 50 51 48 45 40 35 30 21 18 28
39 37 33 32 29 27 24 21 19 19 20 20 22 24 27 29 32 36 37 39 41 44 46 51 49 53 50 41 34 27 20 20
Wind_Direction_500mb
162 63 19 10 0 351 349 348 346 349 352 354 355 359 0 2 3 2 358 353 356 359 8 14 10 15 7 3 350 355 5 321
194 175 337 353 349 343 336 334 335 340 345 347 349 355 358 1 5 7 5 0 354 355 357 9 13 11 13 14 6 354 355 5
204 219 279 332 335 330 327 331 332 335 338 338 338 341 346 353 359 2 2 2 3 353 353 357 9 11 8 13 14 9 356 356
212 227 269 314 325 328 329 328 327 326 324 325 325 325 330 337 345 350 355 359 358 1 354 351 355 5 11 9 12 11 9 355
216 241 279 308 321 322 323 320 316 314 311 310 310 311 313 318 322 329 336 344 351 354 357 353 347 353 4 8 8 10 10 7
221 253 285 306 317 317 317 314 312 310 308 305 302 301 301 300 301 305 311 320 331 340 348 350 353 347 350 1 5 4 8 9
229 257 282 300 311 314 318 319 318 318 317 316 313 308 301 296 291 291 296 301 307 317 330 342 345 351 343 349 358 0 2 7
238 262 280 303 311 317 327 333 333 336 340 340 338 334 325 313 301 292 289 291 294 298 304 321 332 339 347 340 347 354 359 2
241 262 287 307 313 327 338 341 340 344 347 344 343 343 343 340 326 311 298 295 291 287 292 295 311 325 330 339 334 343 349 357
243 260 285 298 314 328 339 341 345 349 351 354 355 353 350 347 342 332 318 306 300 290 284 285 286 297 309 318 331 324 335 349
241 255 268 273 296 325 336 343 350 358 3 3 2 359 358 358 353 345 331 317 308 302 285 281 283 286 291 302 322 320 311 325
232 230 226 233 272 319 339 350 1 6 11 12 9 7 8 7 3 358 351 334 315 305 294 281 278 281 281 282 300 308 315 305
215 205 203 214 229 289 342 359 5 11 17 19 18 16 15 14 11 9 5 355 347 330 311 292 281 278 278 275 274 296 302 305
202 198 202 203 201 199 349 10 7 17 21 22 23 23 21 20 17 18 15 8 2 354 344 325 301 287 279 277 275 276 283 288
196 198 202 200 195 186 177 7 6 19 22 20 22 26 24 24 24 21 19 14 0 354 347 342 335 313 299 289 282 270 270 273
199 201 203 199 195 190 188 271 352 10 17 15 13 19 28 26 24 25 22 17 5 358 348 339 336 336 330 320 299 289 287 276
202 204 203 200 198 199 201 234 311 348 1 5 4 6 7 17 26 23 21 18 14 9 1 353 337 329 326 325 317 307 300 273
209 207 206 203 204 205 214 236 273 310 333 346 349 351 356 357 1 8 15 11 9 8 5 5 354 344 335 331 321 293 268 260
211 210 210 211 211 214 224 239 260 282 302 319 330 336 341 345 348 350 353 356 0 3 4 3 3 0 346 334 326 319 292 255
213 212 214 219 219 224 232 244 255 268 285 300 312 320 328 332 334 337 341 342 346 349 357 358 1 7 2 348 331 319 308 272
Wind_Speed_850mb
3 2 5 9 14 19 25 28 31 34 38 40 37 34 35 36 38 40 38 38 41 44 45 44 46 45 44 40 30 34 36 17
5 2 2 6 12 19 25 29 32 36 35 33 32 32 33 35 37 41 42 40 36 38 43 43 43 47 48 43 38 28 36 33
8 5 4 8 16 24 27 29 31 33 32 30 31 31 31 32 35 38 41 43 42 36 36 41 42 42 46 48 48 38 26 38
13 10 8 12 19 24 27 30 32 34 36 36 35 36 35 32 30 33 36 38 41 41 35 35 40 39 40 44 47 46 36 23
16 12 13 18 21 25 30 35 39 42 44 46 46 45 43 40 36 32 32 35 37 39 40 35 32 36 38 40 41 42 40 33
19 17 18 21 25 32 37 43 48 51 55 56 57 56 54 50 46 41 35 32 34 35 36 36 33 30 35 36 40 41 41 37
21 20 21 22 30 37 38 41 44 48 51 53 55 55 56 56 53 49 43 36 32 30 33 34 32 31 27 31 35 37 40 41
24 23 22 24 30 30 30 32 34 35 38 41 44 45 45 46 46 46 43 39 34 31 28 28 30 29 28 25 29 32 35 38
26 23 21 23 23 22 21 24 29 33 37 39 41 43 43 40 36 33 35 34 31 30 29 25 26 26 27 24 22 24 27 31
24 21 17 16 14 14 18 23 27 30 34 38 42 44 44 41 37 31 27 27 24 23 26 27 22 23 23 24 21 18 20 23
22 18 12 9 7 11 14 18 23 28 33 38 42 43 43 43 40 35 29 27 26 20 20 25 25 21 21 23 21 19 16 16
22 14 10 8 6 7 11 15 22 27 31 36 40 43 46 45 42 39 34 27 25 24 19 20 24 21 19 16 19 17 15 15
22 16 14 10 6 3 6 12 19 24 30 34 37 42 45 46 44 40 38 33 26 22 21 19 20 20 21 20 17 18 14 12
24 20 16 12 8 4 2 9 14 20 26 30 35 39 43 46 47 45 42 38 35 32 30 25 23 20 17 19 17 15 16 14
27 23 20 17 13 8 2 4 10 16 22 27 32 36 41 44 47 48 47 44 36 36 35 34 29 24 19 21 21 19 20 22
29 26 24 20 16 12 6 1 6 11 17 23 28 33 35 38 44 46 47 42 37 37 36 36 34 30 35 34 30 27 26 28
33 31 28 24 20 16 10 6 4 8 13 19 24 28 33 33 33 37 41 42 41 41 40 39 34 36 34 33 33 32 30 26
33 33 30 27 24 19 14 10 7 8 12 16 21 25 29 33 36 34 32 37 43 46 47 46 47 39 35 32 31 33 37 30
37 35 31 29 26 22 19 14 12 13 14 16 19 23 27 30 33 36 40 41 42 44 50 51 48 45 40 35 30 21 18 28
39 37 33 32 29 27 24 21 19 19 20 20 22 24 27 29 32 36 37 39 41 44 46 51 49 53 50 41 34 27 20 20
Wind_Direction_850mb
162 63 19 10 0 351 349 348 346 349 352 354 355 359 0 2 3 2 358 353 356 359 8 14 10 15 7 3 350 355 5 321
194 175 337 353 349 343 336 334 335 340 345 347 349 355 358 1 5 7 5 0 354 355 357 9 13 11 13 14 6 354 355 5
204 219 279 332 335 330 327 331 332 335 338 338 338 341 346 353 359 2 2 2 3 353 353 357 9 11 8 13 14 9 356 356
212 227 269 314 325 328 329 328 327 326 324 325 325 325 330 337 345 350 355 359 358 1 354 351 355 5 11 9 12 11 9 355
216 241 279 308 321 322 323 320 316 314 311 310 310 311 313 318 322 329 336 344 351 354 357 353 347 353 4 8 8 10 10 7
221 253 285 306 317 317 317 314 312 310 308 305 302 301 301 300 301 305 311 320 331 340 348 350 353 347 350 1 5 4 8 9
229 257 282 300 311 314 318 319 318 318 317 316 313 308 301 296 291 291 296 301 307 317 330 342 345 351 343 349 358 0 2 7
238 262 280 303 311 317 327 333 333 336 340 340 338 334 325 313 301 292 289 291 294 298 304 321 332 339 347 340 347 354 359 2
241 262 287 307 313 327 338 341 340 344 347 344 343 343 343 340 326 311 298 295 291 287 292 295 311 325 330 339 334 343 349 357
243 260 285 298 314 328 339 341 345 349 351 354 355 353 350 347 342 332 318 306 300 290 284 285 286 297 309 318 331 324 335 349
241 255 268 273 296 325 336 343 350 358 3 3 2 359 358 358 353 345 331 317 308 302 285 281 283 286 291 302 322 320 311 325
232 230 226 233 272 319 339 350 1 6 11 12 9 7 8 7 3 358 351 334 315 305 294 281 278 281 281 282 300 308 315 305
215 205 203 214 229 289 342 359 5 11 17 19 18 16 15 14 11 9 5 355 347 330 311 292 281 278 278 275 274 296 302 305
202 198 202 203 201 199 349 10 7 17 21 22 23 23 21 20 17 18 15 8 2 354 344 325 301 287 279 277 275 276 283 288
196 198 202 200 195 186 177 7 6 19 22 20 22 26 24 24 24 21 19 14 0 354 347 342 335 313 299 289 282 270 270 273
199 201 203 199 195 190 188 271 352 10 17 15 13 19 28 26 24 25 22 17 5 358 348 339 336 336 330 320 299 289 287 276
202 204 203 200 198 199 201 234 311 348 1 5 4 6 7 17 26 23 21 18 14 9 1 353 337 329 326 325 317 307 300 273
209 207 206 203 204 205 214 236 273 310 333 346 349 351 356 357 1 8 15 11 9 8 5 5 354 344 335 331 321 293 268 260
211 210 210 211 211 214 224 239 260 282 302 319 330 336 341 345 348 350 353 356 0 3 4 3 3 0 346 334 326 319 292 255
213 212 214 219 219 224 232 244 255 268 285 300 312 320 328 332 334 337 341 342 346 349 357 358 1 7 2 348 331 319 308 272